| time (UTC) | temp F | wind direction | speed MPH | gust MPH | rain 1hr in | rain 24hr in | rain mn in | humidity % | barometer mb |
| 20260901033054 | 67 | 328 | 0.0 | 2.0 | 0.00 | 0.00 | 0.00 | 93 | 1017.2 |
| 20260901031521 | 67 | 328 | 0.0 | 1.0 | 0.00 | 0.00 | 0.00 | 93 | 1017.0 |
| 20260901030055 | 67 | 328 | 0.0 | 0.0 | 0.00 | 0.00 | 0.00 | 92 | 1017.5 |
| 20260901024605 | 67 | 328 | 0.0 | 0.0 | 0.00 | 0.00 | 0.00 | 92 | 1017.5 |
| 20260901024502 | 67 | 328 | 0.0 | 0.0 | 0.00 | 0.00 | 0.00 | 92 | 1017.6 |
| 20260901023026 | 67 | 328 | 0.0 | 0.0 | 0.00 | 0.00 | 0.00 | 92 | 1017.6 |
| 20260901021628 | 67 | 327 | 0.0 | 0.0 | 0.00 | 0.00 | 0.00 | 92 | 1017.7 |
| 20260901020121 | 67 | 328 | 0.0 | 0.0 | 0.00 | 0.00 | 0.00 | 92 | 1017.7 |
| 20260901014524 | 67 | 327 | 0.0 | 0.0 | 0.00 | 0.00 | 0.00 | 91 | 1017.7 |
| 20260901013104 | 67 | 327 | 0.0 | 0.0 | 0.00 | 0.00 | 0.00 | 91 | 1017.6 |
| 20260901011515 | 68 | 328 | 0.0 | 0.0 | 0.00 | 0.00 | 0.00 | 91 | 1017.6 |
| 20260901010046 | 68 | 327 | 0.0 | 0.0 | 0.00 | 0.00 | 0.00 | 90 | 1017.6 |
| 20260901004545 | 68 | 328 | 0.0 | 2.0 | 0.00 | 0.00 | 0.00 | 90 | 1017.6 |
| 20260901003010 | 68 | 327 | 0.0 | 1.0 | 0.00 | 0.00 | 0.00 | 89 | 1017.6 |
| 20260901001557 | 68 | 328 | 0.0 | 2.0 | 0.00 | 0.00 | 0.00 | 88 | 1017.7 |
| 20260901000116 | 69 | 328 | 0.0 | 0.0 | 0.00 | 0.00 | 0.00 | 89 | 1017.6 |
| 20260831234505 | 69 | 328 | 0.0 | 1.0 | 0.00 | 0.00 | 0.00 | 88 | 1017.7 |
| 20260831233041 | 69 | 328 | 0.0 | 2.0 | 0.00 | 0.00 | 0.00 | 88 | 1017.7 |
| 20260831231606 | 70 | 328 | 1.0 | 3.0 | 0.00 | 0.00 | 0.00 | 88 | 1017.7 |
| 20260831230120 | 70 | 328 | 0.0 | 2.0 | 0.00 | 0.00 | 0.00 | 89 | 1018.1 |
| 20260831224524 | 70 | 327 | 0.0 | 2.0 | 0.00 | 0.00 | 0.00 | 88 | 1018.1 |
| 20260831223056 | 70 | 257 | 0.0 | 1.0 | 0.00 | 0.00 | 0.00 | 88 | 1018.2 |
| 20260831221510 | 70 | 257 | 0.0 | 0.0 | 0.00 | 0.00 | 0.00 | 87 | 1018.3 |
| 20260831220117 | 70 | 258 | 0.0 | 2.0 | 0.00 | 0.00 | 0.00 | 87 | 1018.3 |
| 20260831214511 | 71 | 338 | 1.0 | 3.0 | 0.00 | 0.00 | 0.00 | 84 | 1018.2 |
| 20260831213033 | 72 | 251 | 1.0 | 2.0 | 0.00 | 0.00 | 0.00 | 84 | 1018.1 |
| 20260831211603 | 72 | 251 | 0.0 | 1.0 | 0.00 | 0.00 | 0.00 | 82 | 1018.1 |
| 20260831210116 | 73 | 252 | 1.0 | 2.0 | 0.00 | 0.00 | 0.00 | 81 | 1018.2 |
| 20260831204515 | 74 | 221 | 0.0 | 0.0 | 0.00 | 0.00 | 0.00 | 81 | 1018.0 |
| 20260831203036 | 75 | 221 | 2.0 | 6.0 | 0.00 | 0.00 | 0.00 | 79 | 1018.1 |
| 20260831201507 | 75 | 60 | 0.0 | 3.0 | 0.00 | 0.00 | 0.00 | 78 | 1018.2 |
| 20260831200125 | 75 | 92 | 1.0 | 4.0 | 0.00 | 0.00 | 0.00 | 78 | 1018.2 |
| 20260831194547 | 75 | 183 | 0.0 | 2.0 | 0.00 | 0.00 | 0.00 | 79 | 1018.4 |
| 20260831193054 | 75 | 203 | 1.0 | 3.0 | 0.00 | 0.00 | 0.00 | 79 | 1018.5 |
| 20260831191517 | 75 | 298 | 0.0 | 3.0 | 0.00 | 0.00 | 0.00 | 77 | 1018.6 |
| 20260831190045 | 75 | 146 | 1.0 | 3.0 | 0.00 | 0.00 | 0.00 | 80 | 1018.9 |
| 20260831184607 | 75 | 120 | 0.0 | 4.0 | 0.00 | 0.00 | 0.00 | 79 | 1019.2 |
| 20260831183012 | 74 | 80 | 1.0 | 6.0 | 0.00 | 0.00 | 0.00 | 77 | 1019.3 |
| 20260831181537 | 74 | 202 | 0.0 | 2.0 | 0.00 | 0.00 | 0.00 | 81 | 1019.3 |
| 20260831180107 | 74 | 308 | 0.0 | 2.0 | 0.00 | 0.00 | 0.00 | 79 | 1019.2 |
| 20260831174510 | 74 | 110 | 0.0 | 3.0 | 0.00 | 0.00 | 0.00 | 80 | 1019.4 |
| 20260831173050 | 74 | 205 | 0.0 | 4.0 | 0.00 | 0.00 | 0.00 | 82 | 1019.3 |
| 20260831171503 | 74 | 133 | 0.0 | 3.0 | 0.00 | 0.00 | 0.00 | 79 | 1019.5 |
| 20260831170002 | 74 | 184 | 0.0 | 4.0 | 0.00 | 0.00 | 0.00 | 80 | 1019.8 |
| 20260831164532 | 74 | 127 | 0.0 | 4.0 | 0.00 | 0.00 | 0.00 | 79 | 1020.4 |
| 20260831163056 | 74 | 152 | 0.0 | 4.0 | 0.00 | 0.00 | 0.00 | 80 | 1020.3 |
| 20260831161515 | 73 | 131 | 1.0 | 5.0 | 0.00 | 0.00 | 0.00 | 80 | 1020.4 |
| 20260831160109 | 73 | 167 | 0.0 | 2.0 | 0.00 | 0.00 | 0.00 | 81 | 1020.4 |
| 20260831154516 | 73 | 320 | 1.0 | 4.0 | 0.00 | 0.00 | 0.00 | 80 | 1020.5 |
| 20260831153031 | 72 | 142 | 1.0 | 4.0 | 0.00 | 0.00 | 0.00 | 82 | 1020.7 |
| 20260831151603 | 71 | 344 | 1.0 | 5.0 | 0.00 | 0.00 | 0.00 | 83 | 1020.8 |
| 20260831150115 | 71 | 15 | 1.0 | 4.0 | 0.00 | 0.00 | 0.00 | 84 | 1020.8 |
| 20260831144528 | 71 | 17 | 1.0 | 3.0 | 0.00 | 0.00 | 0.00 | 83 | 1020.6 |
| 20260831143051 | 71 | 295 | 0.0 | 3.0 | 0.00 | 0.00 | 0.00 | 84 | 1020.6 |
| 20260831141509 | 70 | 73 | 0.0 | 3.0 | 0.00 | 0.00 | 0.00 | 86 | 1020.6 |
| 20260831140036 | 69 | 354 | 0.0 | 3.0 | 0.00 | 0.00 | 0.00 | 87 | 1020.6 |
| 20260831134536 | 68 | 98 | 1.0 | 4.0 | 0.00 | 0.00 | 0.00 | 89 | 1020.7 |
| 20260831133002 | 67 | 62 | 0.0 | 3.0 | 0.00 | 0.00 | 0.00 | 92 | 1020.9 |
| 20260831131526 | 66 | 323 | 1.0 | 5.0 | 0.00 | 0.00 | 0.00 | 91 | 1020.7 |
| 20260831130051 | 66 | 118 | 0.0 | 3.0 | 0.00 | 0.00 | 0.00 | 94 | 1020.7 |
| 20260831124556 | 65 | 344 | 0.0 | 3.0 | 0.00 | 0.00 | 0.00 | 96 | 1020.9 |
| 20260831123021 | 64 | 127 | 1.0 | 5.0 | 0.00 | 0.00 | 0.00 | 98 | 1021.0 |
| 20260831121544 | 63 | 153 | 1.0 | 3.0 | 0.00 | 0.00 | 0.00 | 98 | 1020.9 |
| 20260831120108 | 63 | 129 | 1.0 | 4.0 | 0.00 | 0.00 | 0.00 | 98 | 1020.9 |
| 20260831114507 | 62 | 276 | 0.0 | 0.0 | 0.00 | 0.00 | 0.00 | 99 | 1020.6 |
| 20260831113031 | 61 | 276 | 0.0 | 0.0 | 0.00 | 0.00 | 0.00 | 98 | 1020.8 |
| 20260831111501 | 61 | 276 | 0.0 | 0.0 | 0.00 | 0.00 | 0.00 | 98 | 1020.5 |
| 20260831110158 | 60 | 276 | 0.0 | 0.0 | 0.00 | 0.00 | 0.00 | 97 | 1020.0 |
| 20260831104515 | 60 | 276 | 0.0 | 0.0 | 0.00 | 0.00 | 0.00 | 97 | 1019.9 |
| 20260831103043 | 60 | 276 | 0.0 | 0.0 | 0.00 | 0.00 | 0.00 | 97 | 1019.7 |
| 20260831101506 | 59 | 276 | 0.0 | 0.0 | 0.00 | 0.00 | 0.00 | 97 | 1019.8 |
| 20260831094550 | 59 | 276 | 0.0 | 0.0 | 0.00 | 0.00 | 0.00 | 96 | 1019.6 |
| 20260831093014 | 60 | 276 | 0.0 | 0.0 | 0.00 | 0.00 | 0.00 | 96 | 1019.6 |
| 20260831091549 | 60 | 277 | 0.0 | 0.0 | 0.00 | 0.00 | 0.00 | 96 | 1019.5 |
| 20260831090105 | 60 | 276 | 0.0 | 0.0 | 0.00 | 0.00 | 0.00 | 96 | 1019.5 |
| 20260831084525 | 60 | 276 | 0.0 | 0.0 | 0.00 | 0.00 | 0.00 | 96 | 1019.6 |
| 20260831083050 | 60 | 276 | 0.0 | 0.0 | 0.00 | 0.00 | 0.00 | 96 | 1019.6 |
| 20260831081521 | 60 | 276 | 0.0 | 0.0 | 0.00 | 0.00 | 0.00 | 96 | 1019.6 |
| 20260831080041 | 60 | 276 | 0.0 | 0.0 | 0.00 | 0.00 | 0.00 | 96 | 1019.2 |
| 20260831074539 | 61 | 276 | 0.0 | 0.0 | 0.00 | 0.00 | 0.00 | 95 | 1019.1 |
| 20260831073138 | 61 | 276 | 0.0 | 0.0 | 0.00 | 0.00 | 0.00 | 95 | 1019.2 |
| 20260831071517 | 61 | 276 | 0.0 | 0.0 | 0.00 | 0.00 | 0.00 | 95 | 1019.2 |
| 20260831070044 | 61 | 277 | 0.0 | 0.0 | 0.00 | 0.00 | 0.00 | 95 | 1019.2 |
| 20260831064557 | 61 | 276 | 0.0 | 0.0 | 0.00 | 0.00 | 0.00 | 94 | 1019.3 |
| 20260831063016 | 62 | 276 | 0.0 | 0.0 | 0.00 | 0.00 | 0.00 | 94 | 1019.3 |
| 20260831061540 | 62 | 276 | 0.0 | 2.0 | 0.00 | 0.00 | 0.00 | 94 | 1019.3 |
| 20260831060116 | 62 | 276 | 0.0 | 0.0 | 0.00 | 0.00 | 0.00 | 93 | 1019.2 |
| 20260831054509 | 63 | 276 | 0.0 | 0.0 | 0.00 | 0.00 | 0.00 | 93 | 1019.4 |
| 20260831053039 | 63 | 276 | 0.0 | 0.0 | 0.00 | 0.00 | 0.00 | 93 | 1019.1 |
| 20260831051559 | 64 | 277 | 0.0 | 0.0 | 0.00 | 0.00 | 0.00 | 92 | 1019.2 |
| 20260831051500 | 63 | 276 | 0.0 | 0.0 | 0.00 | 0.00 | 0.00 | 92 | 1019.2 |
| 20260831050143 | 64 | 276 | 0.0 | 0.0 | 0.00 | 0.00 | 0.00 | 92 | 1019.3 |
| 20260831044515 | 64 | 275 | 0.0 | 0.0 | 0.00 | 0.00 | 0.00 | 92 | 1019.3 |
| 20260831043049 | 65 | 276 | 1.0 | 3.0 | 0.00 | 0.00 | 0.00 | 92 | 1019.2 |
| 20260831041511 | 64 | 279 | 0.0 | 1.0 | 0.00 | 0.00 | 0.00 | 91 | 1019.2 |
| 20260831040032 | 65 | 279 | 0.0 | 2.0 | 0.00 | 0.00 | 0.00 | 90 | 1019.0 |
| 20260831034531 | 65 | 279 | 0.0 | 2.0 | 0.00 | 0.00 | 0.00 | 90 | 1019.1 |